This is the latest recevied weather packets stored in our database for station/object KE1THD. If no packets are shown the sender has not sent any weather packets the latest 10 day(s).
| Time | Temp. | Humidity | Pressure | Rain* | Wind** | Luminosity | Snow |
|---|---|---|---|---|---|---|---|
| 1777769890 | 12.78° C | 37% | 1016.5 hPa | 0 mm | - | 4 W/m² | - |
| 1777769588 | 12.78° C | 37% | 1016.4 hPa | 0 mm | - | 6 W/m² | - |
| 1777769283 | 13.33° C | 37% | 1016.3 hPa | 0 mm | - | 10 W/m² | - |
| 1777768981 | 13.33° C | 37% | 1016.5 hPa | 0 mm | - | 13 W/m² | - |
| 1777768678 | 13.33° C | 36% | 1016.6 hPa | 0 mm | - | 17 W/m² | - |
| 1777768375 | 13.89° C | 36% | 1016.4 hPa | 0 mm | - | 20 W/m² | - |
| 1777768072 | 13.89° C | 33% | 1016.6 hPa | 0 mm | - | 22 W/m² | - |
| 1777767769 | 14.44° C | 33% | 1016.6 hPa | 0 mm | - | 24 W/m² | - |
| 1777767465 | 15° C | 33% | 1016.8 hPa | 0 mm | - | 33 W/m² | - |
| 1777767161 | 15° C | 33% | 1016.7 hPa | 0 mm | - | 38 W/m² | - |
| 1777766859 | 15° C | 32% | 1016.4 hPa | 0 mm | - | 42 W/m² | - |
| 1777766556 | 15° C | 31% | 1016.6 hPa | 0 mm | - | 47 W/m² | - |
| 1777766253 | 15° C | 32% | 1016.6 hPa | 0 mm | - | 60 W/m² | - |
| 1777765951 | 15° C | 32% | 1016.7 hPa | 0 mm | - | 70 W/m² | - |
| 1777765647 | 15° C | 31% | 1016.9 hPa | 0 mm | - | 82 W/m² | - |
| 1777765345 | 15° C | 31% | 1016.8 hPa | 0 mm | - | 91 W/m² | - |
| 1777765041 | 15° C | 31% | 1016.7 hPa | 0 mm | - | 102 W/m² | - |
| 1777764738 | 15° C | 31% | 1016.8 hPa | 0 mm | - | 120 W/m² | - |
| 1777764433 | 15.56° C | 31% | 1016.9 hPa | 0 mm | - | 129 W/m² | - |
| 1777764131 | 15.56° C | 31% | 1016.8 hPa | 0 mm | - | 136 W/m² | - |
| 1777763827 | 15.56° C | 30% | 1016.9 hPa | 0 mm | - | 151 W/m² | - |
| 1777763525 | 15.56° C | 30% | 1017.2 hPa | 0 mm | - | 177 W/m² | - |
| 1777763224 | 15.56° C | 32% | 1016.9 hPa | 0 mm | - | 178 W/m² | - |
| 1777762922 | 15.56° C | 29% | 1017 hPa | 0 mm | - | 193 W/m² | - |
| 1777762617 | 15.56° C | 30% | 1016.9 hPa | 0 mm | - | 205 W/m² | - |
* Rain latest hour (hover to see other rain measurements)
** Current wind speed in m/s (hover to see current wind gust speed)